Weather History for Rosh-Pina, Israel

Change the Weather History Date:

Tuesday, February 5, 2013

  Actual Average (OLBA) Record (OLBA)
Temperature  
Mean Temperature 62 °F -  
Max Temperature 68 °F 60 °F 72 °F (2013)
Min Temperature 57 °F 50 °F 39 °F (1997)
Degree Days  
Heating Degree Days 2    
Growing Degree Days 12 (Base 50)    
Moisture  
Dew Point 38 °F    
Average Humidity 40    
Maximum Humidity 55    
Minimum Humidity 32    
Precipitation  
Precipitation 0.00 in - - ()
Sea Level Pressure  
Sea Level Pressure 30.01 in    
Wind  
Wind Speed 4 mph ()    
Max Wind Speed 7 mph    
Max Gust Speed -    
Visibility 6.2 miles    
Events      
Averages and records for this station are not official NWS values.
T = Trace of Precipitation, MM = Missing Value Source: Averaged Metar Reports

Daily Weather History Graph

Daily Weather History Graph

Search for Another Location

Airport:

Trip Planner

Search our weather history database for the weather conditions in past years. The results will help you decide how hot, cold, wet, or windy it might be!

Date:

Astronomy

Feb. 05, 2013 Rise Set
Actual Time 6:30 AM IST 5:13 PM IST
Civil Twilight 6:04 AM IST 5:39 PM IST
Nautical Twilight 5:34 AM IST 6:08 PM IST
Astronomical Twilight 5:05 AM IST 6:37 PM IST
Moon 1:44 AM IST (2/5) 12:17 PM IST (2/5)
Length of Visible Light 11h 35m
Length of Day
10h 43m
Waning Crescent, 30% of the Moon is Illuminated
Feb 5
Waning Crescent
Feb 10
New
Feb 17
First Quarter
Feb 25
Full
Mar 4
Last Quarter

Hourly Weather History & Observations

Time (IST) Temp. Dew Point Humidity Pressure Visibility Wind Dir Wind Speed Gust Speed Precip Events Conditions
5:50 AM 57.2 °F 33.8 °F 41% 30.06 in 6.2 mi Variable 1.2 mph - N/A   Mostly Cloudy
6:20 AM 57.2 °F 32.0 °F 38% 30.06 in 6.2 mi SE 6.9 mph - N/A   Mostly Cloudy
6:50 AM 59.0 °F 32.0 °F 36% 30.06 in 6.2 mi SSE 5.8 mph - N/A   Scattered Clouds
7:20 AM 60.8 °F 32.0 °F 34% 30.09 in 6.2 mi SSE 6.9 mph - N/A   Mostly Cloudy
7:50 AM 60.8 °F 33.8 °F 36% 30.09 in 6.2 mi South 4.6 mph - N/A   Mostly Cloudy
8:20 AM 60.8 °F 33.8 °F 36% 30.06 in 6.2 mi South 4.6 mph - N/A   Mostly Cloudy
8:50 AM 62.6 °F 35.6 °F 37% 30.06 in 6.2 mi SSW 4.6 mph - N/A   Mostly Cloudy
9:20 AM 64.4 °F 35.6 °F 34% 30.06 in 6.2 mi SSE 4.6 mph - N/A   Mostly Cloudy
9:50 AM 66.2 °F 35.6 °F 32% 30.06 in 6.2 mi SE 6.9 mph - N/A   Overcast
10:20 AM 66.2 °F 35.6 °F 32% 30.06 in 6.2 mi ESE 6.9 mph - N/A   Overcast
10:50 AM 66.2 °F 35.6 °F 32% 30.04 in 6.2 mi ESE 6.9 mph - N/A   Overcast
11:20 AM 66.2 °F 37.4 °F 35% 30.04 in 6.2 mi SSE 4.6 mph - N/A   Overcast
11:50 AM 66.2 °F 39.2 °F 37% 30.01 in 6.2 mi South 4.6 mph - N/A   Overcast
12:20 PM 66.2 °F 37.4 °F 35% 30.01 in 6.2 mi SSE 4.6 mph - N/A   Overcast
12:50 PM 66.2 °F 41.0 °F 40% 29.98 in 6.2 mi SSW 4.6 mph - N/A   Overcast
1:20 PM 66.2 °F 41.0 °F 40% 29.98 in 6.2 mi SSW 4.6 mph - N/A   Overcast
2:20 PM 68.0 °F 41.0 °F 37% 29.95 in 6.2 mi SSW 4.6 mph - N/A   Overcast
3:20 PM 66.2 °F 42.8 °F 43% 29.95 in 6.2 mi SW 5.8 mph - N/A   Overcast
3:50 PM 66.2 °F 44.6 °F 46% 29.95 in 6.2 mi SSW 3.5 mph - N/A   Overcast
4:20 PM 64.4 °F 42.8 °F 45% 29.92 in 6.2 mi WSW 4.6 mph - N/A   Mostly Cloudy
4:50 PM 62.6 °F 44.6 °F 52% 29.95 in 6.2 mi SW 4.6 mph - N/A   Mostly Cloudy
5:20 PM 60.8 °F 42.8 °F 52% 29.92 in 6.2 mi SW 4.6 mph - N/A   Mostly Cloudy
5:50 PM 59.0 °F 41.0 °F 51% 29.92 in 6.2 mi SW 5.8 mph - N/A   Mostly Cloudy
6:20 PM 57.2 °F 41.0 °F 55% 29.95 in 6.2 mi WSW 4.6 mph - N/A   Mostly Cloudy
6:50 PM 59.0 °F 39.2 °F 48% 29.95 in 6.2 mi Variable 3.5 mph - N/A   Scattered Clouds